Hourly Weather Aahalden

Today, 5 August, Thursday

Time Temperature Precipitation Wind Pressure Humidity
00:00 +13°C° 1.3 mm 0 mps 708 mmHg 99%
01:00 +14°C° 0 mm 1 mps 708 mmHg 99%
02:00 +14°C° 0.4 mm 1 mps 707 mmHg 98%
03:00 +13°C° 0.4 mm 0 mps 707 mmHg 98%
04:00 +13°C° 0.4 mm 0 mps 707 mmHg 97%
05:00 +13°C° 0.1 mm 0 mps 707 mmHg 97%
06:00 +13°C° 0.1 mm 0 mps 707 mmHg 96%
07:00 +13°C° 0 mm 0 mps 707 mmHg 96%
08:00 +14°C° 0.4 mm 0 mps 707 mmHg 92%
09:00 +18°C° 0.4 mm 1 mps 707 mmHg 88%
10:00 +19°C° 0.4 mm 1 mps 707 mmHg 84%
11:00 +19°C° 0.6 mm 1 mps 707 mmHg 83%
12:00 +19°C° 0.6 mm 2 mps 707 mmHg 81%
13:00 +19°C° 0.6 mm 3 mps 706 mmHg 80%
14:00 +19°C° 0.9 mm 3 mps 706 mmHg 82%
15:00 +19°C° 0.9 mm 3 mps 706 mmHg 84%
16:00 +19°C° 0.9 mm 3 mps 706 mmHg 86%
17:00 +18°C° 0.5 mm 2 mps 706 mmHg 88%
18:00 +17°C° 0.5 mm 2 mps 706 mmHg 90%
19:00 +18°C° 0.5 mm 1 mps 706 mmHg 92%
20:00 +16°C° 0.1 mm 1 mps 706 mmHg 93%
21:00 +15°C° 0.1 mm 1 mps 706 mmHg 93%
22:00 +14°C° 0.1 mm 1 mps 706 mmHg 94%
23:00 +14°C° 0 mm 1 mps 706 mmHg 94%

Tomorrow, 6 August, Friday

Time Temperature Precipitation Wind Pressure Humidity
00:00 +14°C° 0 mm 1 mps 706 mmHg 93%
01:00 +13°C° 0 mm 1 mps 706 mmHg 93%
02:00 +13°C° 0 mm 1 mps 705 mmHg 92%
03:00 +14°C° 0 mm 1 mps 705 mmHg 92%
04:00 +14°C° 0 mm 1 mps 705 mmHg 91%
05:00 +14°C° 0 mm 1 mps 705 mmHg 90%
06:00 +15°C° 0 mm 1 mps 705 mmHg 89%
07:00 +15°C° 0 mm 1 mps 706 mmHg 88%
08:00 +16°C° 0 mm 1 mps 706 mmHg 85%
09:00 +17°C° 0 mm 2 mps 706 mmHg 81%
10:00 +18°C° 0 mm 2 mps 707 mmHg 77%
11:00 +19°C° 0 mm 2 mps 707 mmHg 73%
12:00 +20°C° 0 mm 3 mps 707 mmHg 69%
13:00 +21°C° 0 mm 3 mps 707 mmHg 64%
14:00 +21°C° 0 mm 2 mps 707 mmHg 63%
15:00 +23°C° 0 mm 2 mps 706 mmHg 62%
16:00 +23°C° 0 mm 2 mps 706 mmHg 61%
17:00 +21°C° 0 mm 2 mps 706 mmHg 68%
18:00 +20°C° 0 mm 1 mps 706 mmHg 76%
19:00 +19°C° 0 mm 1 mps 706 mmHg 83%
20:00 +18°C° 0 mm 1 mps 706 mmHg 86%
21:00 +16°C° 0 mm 1 mps 706 mmHg 88%
22:00 +15°C° 0 mm 1 mps 706 mmHg 90%
23:00 +15°C° 0 mm 1 mps 706 mmHg 91%

Day after tomorrow, 7 August, Saturday

Time Temperature Precipitation Wind Pressure Humidity
00:00 +14°C° 0 mm 1 mps 706 mmHg 91%
01:00 +14°C° 0 mm 1 mps 706 mmHg 91%
02:00 +14°C° 0 mm 1 mps 705 mmHg 92%
03:00 +14°C° 0 mm 1 mps 705 mmHg 92%
04:00 +13°C° 0 mm 1 mps 705 mmHg 92%
05:00 +14°C° 0 mm 1 mps 704 mmHg 90%
06:00 +15°C° 0 mm 1 mps 704 mmHg 87%
07:00 +16°C° 0 mm 1 mps 704 mmHg 84%
08:00 +19°C° 0 mm 1 mps 704 mmHg 77%
09:00 +22°C° 0 mm 1 mps 703 mmHg 69%
10:00 +24°C° 0 mm 1 mps 703 mmHg 62%
11:00 +25°C° 0 mm 2 mps 703 mmHg 59%
12:00 +26°C° 0 mm 2 mps 703 mmHg 57%
13:00 +27°C° 0 mm 2 mps 703 mmHg 54%
14:00 +26°C° 0.1 mm 3 mps 703 mmHg 59%
15:00 +25°C° 0.1 mm 4 mps 703 mmHg 63%
16:00 +23°C° 0.1 mm 4 mps 703 mmHg 68%
17:00 +21°C° 0.6 mm 3 mps 704 mmHg 77%
18:00 +19°C° 0.6 mm 2 mps 704 mmHg 86%
19:00 +18°C° 0.6 mm 1 mps 705 mmHg 96%
20:00 +16°C° 2.1 mm 1 mps 705 mmHg 96%
21:00 +15°C° 2.1 mm 1 mps 706 mmHg 97%
22:00 +15°C° 2.1 mm 1 mps 706 mmHg 98%
23:00 +15°C° 1.9 mm 1 mps 707 mmHg 98%

8 August, Sunday

Time Temperature Precipitation Wind Pressure Humidity
00:00 +15°C° 1.9 mm 1 mps 707 mmHg 97%
01:00 +14°C° 1.9 mm 1 mps 707 mmHg 97%
02:00 +14°C° 1.3 mm 1 mps 707 mmHg 97%
03:00 +14°C° 1.3 mm 1 mps 707 mmHg 96%
04:00 +14°C° 1.3 mm 1 mps 707 mmHg 96%
05:00 +14°C° 0.6 mm 1 mps 707 mmHg 95%
06:00 +14°C° 0.6 mm 1 mps 708 mmHg 94%
07:00 +15°C° 0.6 mm 1 mps 708 mmHg 94%
08:00 +15°C° 0.6 mm 1 mps 708 mmHg 92%
09:00 +15°C° 0.6 mm 1 mps 709 mmHg 91%
10:00 +15°C° 0.6 mm 1 mps 709 mmHg 89%
11:00 +16°C° 0.6 mm 2 mps 710 mmHg 87%
12:00 +16°C° 0.6 mm 2 mps 710 mmHg 85%
13:00 +16°C° 0.6 mm 2 mps 710 mmHg 83%
14:00 +16°C° 0.2 mm 2 mps 710 mmHg 82%
15:00 +17°C° 0.2 mm 2 mps 711 mmHg 81%
16:00 +17°C° 0.2 mm 2 mps 711 mmHg 79%
17:00 +18°C° 0.2 mm 1 mps 711 mmHg 82%
18:00 +16°C° 0.2 mm 1 mps 712 mmHg 85%
19:00 +16°C° 0.2 mm 1 mps 712 mmHg 88%
20:00 +15°C° 0 mm 1 mps 712 mmHg 90%
21:00 +13°C° 0 mm 1 mps 712 mmHg 91%
22:00 +12°C° 0 mm 1 mps 713 mmHg 93%
23:00 +12°C° 0 mm 1 mps 713 mmHg 93%

9 August, Monday

Time Temperature Precipitation Wind Pressure Humidity
00:00 +12°C° 0 mm 1 mps 713 mmHg 93%
01:00 +12°C° 0 mm 1 mps 713 mmHg 92%
02:00 +12°C° 0 mm 1 mps 712 mmHg 92%
03:00 +12°C° 0 mm 1 mps 712 mmHg 92%
04:00 +12°C° 0 mm 1 mps 712 mmHg 91%
05:00 +12°C° 0 mm 1 mps 712 mmHg 89%
06:00 +13°C° 0 mm 1 mps 713 mmHg 88%
07:00 +13°C° 0 mm 0 mps 713 mmHg 86%
08:00 +15°C° 0 mm 0 mps 713 mmHg 79%
09:00 +18°C° 0 mm 1 mps 714 mmHg 72%
10:00 +20°C° 0 mm 1 mps 714 mmHg 65%
11:00 +21°C° 0 mm 1 mps 714 mmHg 61%
12:00 +21°C° 0 mm 2 mps 714 mmHg 56%
13:00 +23°C° 0 mm 2 mps 714 mmHg 52%
14:00 +23°C° 0 mm 2 mps 714 mmHg 52%
15:00 +23°C° 0 mm 2 mps 714 mmHg 52%
16:00 +23°C° 0 mm 2 mps 714 mmHg 52%
17:00 +22°C° 0 mm 1 mps 714 mmHg 61%
18:00 +20°C° 0 mm 1 mps 714 mmHg 71%
19:00 +19°C° 0 mm 1 mps 714 mmHg 80%
20:00 +18°C° 0 mm 1 mps 715 mmHg 83%
21:00 +15°C° 0 mm 1 mps 715 mmHg 87%
22:00 +14°C° 0 mm 1 mps 715 mmHg 90%
23:00 +14°C° 0 mm 1 mps 715 mmHg 91%

10 August, Tuesday

Time Temperature Precipitation Wind Pressure Humidity
00:00 +13°C° 0 mm 1 mps 715 mmHg 91%
01:00 +13°C° 0 mm 1 mps 715 mmHg 92%
02:00 +13°C° 0 mm 1 mps 715 mmHg 92%
03:00 +12°C° 0 mm 1 mps 715 mmHg 93%
04:00 +12°C° 0 mm 1 mps 715 mmHg 94%
05:00 +13°C° 0 mm 1 mps 715 mmHg 91%
06:00 +13°C° 0 mm 0 mps 715 mmHg 88%
07:00 +14°C° 0 mm 0 mps 715 mmHg 85%
08:00 +16°C° 0 mm 0 mps 715 mmHg 77%
09:00 +20°C° 0 mm 1 mps 715 mmHg 69%
10:00 +22°C° 0 mm 1 mps 715 mmHg 61%
11:00 +23°C° 0 mm 1 mps 715 mmHg 57%
12:00 +24°C° 0 mm 1 mps 715 mmHg 53%
13:00 +25°C° 0 mm 2 mps 715 mmHg 49%
14:00 +25°C° 0 mm 2 mps 715 mmHg 49%
15:00 +25°C° 0 mm 2 mps 714 mmHg 50%
16:00 +25°C° 0 mm 2 mps 714 mmHg 50%
17:00 +23°C° 0 mm 1 mps 714 mmHg 59%
18:00 +22°C° 0 mm 1 mps 714 mmHg 69%
19:00 +20°C° 0 mm 1 mps 713 mmHg 78%
20:00 +19°C° 0 mm 1 mps 713 mmHg 81%
21:00 +16°C° 0 mm 1 mps 713 mmHg 84%
22:00 +15°C° 0 mm 1 mps 713 mmHg 87%
23:00 +15°C° 0 mm 1 mps 713 mmHg 88%
Show more

We Need Your Consent

Meteoprog and our Service Providers may store and access personal data such as cookies, device identifiers or other similar technologies on your device and process such data to personalise content and ads, as well as provide social media features and to analyse the traffic.

  • Store and/or access information on your device

    Cookies, device identifiers or other information can be stored or accessed on your device for the purposes indicated above.

  • Personalised ads and content, ad and content measurement, audience insights, and products development

    Ads and content can be personalised based on a profile. More data can be added to better personalise ads and content. Ad and content performance can be measured. Insights about the audience who saw the ads and content can be derived. Such data can be used to develop or improve user’s experience, systems and software.

By clicking ‘I Agree’ you will allow the use of indicated cookies, device identifiers, web beacons or other similar technologies. Your settings can be changed in the browser on your device.

For certain purposes, legitimate interests may be relied on, rather than consent. You can read more about this in our Privacy and Cookie Policy.